[ hide orbit diagram ]
For accurate long-term ephemerides, please instead use our Horizons system.This orbit viewer was implemented using two-body methods, and hence should not be used for determining accurate long-term trajectories (over several years or decades) or planetary encounter circumstances.
Orbital Elements at Epoch 2459000.5 (2020-May-31.0) TDB
Reference: JPL 32 (heliocentric ecliptic J2000)
Element | Value | Uncertainty (1-sigma) | Units |
e | .1188524963108802 | 3.1212e-08 | |
a | 2.778464482609829 | 1.3134e-08 | au |
q | 2.448237042940532 | 8.4218e-08 | au |
i | 9.326317797196358 | 4.5075e-06 | deg |
node | 22.18443399002456 | 2.1145e-05 | deg |
peri | 78.76090703791721 | 2.9499e-05 | deg |
M | 174.1026925052574 | 2.1582e-05 | deg |
tp | 2458182.395676261119 (2018-Mar-04.89567626) | 9.8841e-05 | TDB |
period | 1691.631256863552 4.63 | 1.1995e-05 3.284e-08 | d yr |
n | .2128123363406483 | 1.509e-09 | deg/d |
Q | 3.108691922279124 | 1.4695e-08 | au |
|
| | Orbit Determination Parameters
Additional Information
|
[ show covariance matrix ]
Physical Parameter Table
Parameter |
Symbol |
Value |
Units |
Sigma |
Reference |
Notes |
absolute magnitude |
H |
12.8 |
|
n/a |
MPO473948 |
|
diameter |
diameter |
7.541 |
km |
0.070 |
urn:nasa:pds:neowise_diameters_albedos::2.0[mainbelt] (http://adsabs.harvard.edu/abs/2011ApJ...741...68M) |
|
rotation period |
rot_per |
4.129105 |
h |
n/a |
LCDB (Rev. 2020-October); Warner et al., 2009 |
sidereal period (not synodic); Result based on less than full coverage, so that the period may be wrong by 30 percent or so. Published Reference List: [Durech, J.; Hanus, J.; Oszkiewsicz, D.; Vanco, R. (2016) Astron. Astrophys. 587, A48.] |
geometric albedo |
albedo |
0.178 |
|
0.034 |
urn:nasa:pds:neowise_diameters_albedos::2.0[mainbelt] (http://adsabs.harvard.edu/abs/2011ApJ...741...68M) |
|
|
13338 (1998 SK119) Discovered 1998-Sep-26 by LINEAR at Socorro |
Reference: 20000124/Numbers.arc | Last Updated: 2004-04-19 |
|
Alternate Designations
1998 SK119 = 1989 UY9 = 1991 EZ7 = 1996 FC17 |
|
|